Regional Weather Roundup
Issued by NWS

Home | Current Version | Previous Version | Text Only | Print | Product List | Glossary Off
Versions: 1 2 3 4 5 6 7 8 9 10 11 12 13 14 15 16 17 18 19 20 21 22 23 24 25 26 27 28 29 30 31 32 33 34 35 36 37 38 39 40 41 42 43 44 45 46 47 48 49 50

000
ASUS43 KOAX 110902
RWRNE

WEATHER ROUNDUP FOR NEBRASKA
NATIONAL WEATHER SERVICE OMAHA NE
300 AM CST MON DEC 11 2017

NOTES: SATELLITE DATA IS BEING USED TO AUGMENT CLOUD COVER ABOVE
       12000 FEET.
       "FAIR" INDICATES FEW OR NO CLOUDS BELOW 12,000 FEET WITH NO
       SIGNIFICANT WEATHER AND/OR OBSTRUCTIONS TO VISIBILITY.


NEZ001>004-019>022-054>056-111000-
NEBRASKA PANHANDLE

CITY           SKY/WX    TMP DP  RH WIND       PRES   REMARKS
SCOTTSBLUFF    CLEAR     30  11  45 N13       30.28S WCI  20
ALLIANCE       CLOUDY    36  12  37 W15       30.21S WCI  27
CHADRON        CLOUDY    43  14  31 W15       30.22F
GORDON         FAIR      42  17  36 W14       30.17R
KIMBALL        CLEAR     38   5  25 NW16      30.29S WCI  29
SIDNEY         CLOUDY    35   7  31 W14       30.26S WCI  26
$$

NEZ057>060-069>072-079>082-111000-
SOUTHWEST NEBRASKA

CITY           SKY/WX    TMP DP  RH WIND       PRES   REMARKS
NORTH PLATTE   CLEAR     23  15  71 NW8       30.14F WCI  14
IMPERIAL       CLEAR     40   7  25 W18       30.22R WCI  31
LEXINGTON      CLOUDY    30  15  53 NW10      30.12S WCI  21
MCCOOK         CLOUDY    36  10  34 W17       30.18S WCI  26
OGALLALA       CLEAR     31  11  43 W7        30.20F WCI  24
$$

NEZ005>010-023>029-035>040-094-111000-
NORTH CENTRAL NEBRASKA

CITY           SKY/WX    TMP DP  RH WIND       PRES   REMARKS
VALENTINE      CLOUDY    44  19  36 W17G26    30.07S
AINSWORTH      CLOUDY    47  18  31 NW21G32   30.06R
BROKEN BOW     CLEAR     44  13  28 NW20      30.08R
O`NEILL        CLEAR     45  18  33 W18G26    29.99R
ORD            CLOUDY    36  15  42 NW9       30.04S WCI  29
THEDFORD       CLEAR     42  16  35 NW9       30.13R
$$

NEZ041-046>049-061>064-073>077-083>087-111000-
SOUTH CENTRAL NEBRASKA

CITY           SKY/WX    TMP DP  RH WIND       PRES   REMARKS
GRAND ISLAND   CLOUDY    39  15  37 W12       30.05F WCI  32
AURORA         CLOUDY    37  14  38 W10       30.04F WCI  30
HASTINGS       CLEAR     37  12  35 W14       30.07S WCI  28
HEBRON         CLEAR     35  14  41 W8        30.07S WCI  29
HOLDREGE       CLOUDY    36  14  40 W9        30.11F WCI  29
KEARNEY        CLEAR     41  11  29 W10       30.09F
YORK           CLOUDY    37  16  41 W13       30.03F WCI  29
$$

NEZ011>018-030>034-042>045-111000-
NORTHEAST NEBRASKA

CITY           SKY/WX    TMP DP  RH WIND       PRES   REMARKS
NORFOLK        CLOUDY    38  18  44 W10       29.95S WCI  31
ALBION         CLOUDY    45  15  29 NW7       29.99S
BLAIR          CLOUDY    38  20  49 W10       29.96R WCI  31
COLUMBUS       CLOUDY    36  17  46 W9        30.00F WCI  29
FREMONT        PTCLDY    35  21  56 W8        29.96F WCI  28
TEKAMAH        PTCLDY    29  17  61 SW6       29.94F WCI  23
WAYNE          CLOUDY    38  16  40 W12       29.93S WCI  31
$$

NEZ050>053-065>068-078-088>093-111000-
SOUTHEAST NEBRASKA

CITY           SKY/WX    TMP DP  RH WIND       PRES   REMARKS
LINCOLN        PTCLDY    42  16  34 W13       30.02S
OMAHA EPPLEY   CLOUDY    33  22  63 E6        29.98R WCI  28
BEATRICE       PTCLDY    32  17  53 W6        30.03S WCI  27
FALLS CITY     PTCLDY    34  18  52 W5        30.00F WCI  30
NEBRASKA CITY  CLOUDY    37  20  50 W14       29.98F WCI  28
PLATTSMOUTH    CLOUDY    42  19  39 W6        29.97F
$$

NEZ044-045-051>053-067-111000-
OMAHA AREA

CITY           SKY/WX    TMP DP  RH WIND       PRES   REMARKS
OMAHA EPPLEY   CLOUDY    33  22  63 E6        29.98R WCI  28
BLAIR          CLOUDY    38  20  49 W10       29.96R WCI  31
FREMONT        PTCLDY    35  21  56 W8        29.96F WCI  28
MILLARD        CLOUDY    39  21  47 CALM      29.98R
OFFUTT AFB     CLOUDY    29  24  81 CALM      29.97F
PLATTSMOUTH    CLOUDY    42  19  39 W6        29.97F
WAHOO          FAIR      42  18  37 W13       29.97S
$$



USA.gov is the U.S. government's official web portal to all federal, state and local government web resources and services.